N24ZG KLAX-KLAS

Flight info

Callsign N24ZG
Flight time N/A
Altitude 29000
Route OSHNN1 MISEN RNDRZ4
Aircraft B737/M-SDE2E3FGHIRWXY/LB1

Departure

Time 2026-04-25 05:55
Airport Los Angeles International Airport (KLAX)

Arrival

Time N/A
Airport Harry Reid International Airport (KLAS)
Time Latitude Longitude Altitude Speed Heading
2026-04-25 05:28 33.93421 -118.39575 107 ft 0 kts 88°
2026-04-25 05:42 33.93422 -118.39570 107 ft 2 kts 86°
2026-04-25 05:42 33.93423 -118.39555 106 ft 2 kts 85°
2026-04-25 05:43 33.93425 -118.39532 107 ft 5 kts 84°
2026-04-25 05:43 33.93429 -118.39466 107 ft 14 kts 94°
2026-04-25 05:43 33.93482 -118.39377 107 ft 13 kts 22°
2026-04-25 05:43 33.93513 -118.39279 107 ft 29 kts 86°
2026-04-25 05:44 33.93535 -118.39027 107 ft 30 kts 82°
2026-04-25 05:44 33.93549 -118.38909 107 ft 13 kts 82°
2026-04-25 05:44 33.93568 -118.38718 107 ft 31 kts 84°
2026-04-25 05:44 33.93598 -118.38455 107 ft 31 kts 80°
2026-04-25 05:45 33.93634 -118.38291 107 ft 4 kts 39°
2026-04-25 05:45 33.93638 -118.38288 105 ft 0 kts 35°
2026-04-25 05:45 33.93642 -118.38285 106 ft 0 kts 33°
2026-04-25 05:49 33.93660 -118.38278 107 ft 7 kts 13°
2026-04-25 05:49 33.93707 -118.38278 109 ft 7 kts 348°
2026-04-25 05:50 33.93730 -118.38324 109 ft 7 kts 278°
2026-04-25 05:50 33.93728 -118.38379 109 ft 7 kts 264°
2026-04-25 05:50 33.93723 -118.38434 107 ft 7 kts 264°
2026-04-25 05:50 33.93723 -118.38439 107 ft 0 kts 263°
2026-04-25 05:54 33.93717 -118.38500 108 ft 38 kts 263°
2026-04-25 05:55 33.93636 -118.39237 109 ft 135 kts 261°
2026-04-25 05:55 33.93498 -118.40601 456 ft 190 kts 263°
2026-04-25 05:55 33.93356 -118.42310 1258 ft 218 kts 263°
2026-04-25 05:55 33.93158 -118.44218 2020 ft 242 kts 262°
2026-04-25 05:56 33.92629 -118.46232 2697 ft 260 kts 238°
2026-04-25 05:56 33.91552 -118.47994 3442 ft 263 kts 233°
2026-04-25 05:56 33.90414 -118.49748 4146 ft 267 kts 232°
2026-04-25 05:56 33.89240 -118.51486 4859 ft 268 kts 232°
2026-04-25 05:57 33.88057 -118.53234 5557 ft 270 kts 232°
2026-04-25 05:57 33.86786 -118.54910 6198 ft 275 kts 218°
2026-04-25 05:57 33.85032 -118.55839 6806 ft 282 kts 191°
2026-04-25 05:57 33.83095 -118.55768 7416 ft 280 kts 171°
2026-04-25 05:58 33.81186 -118.55256 8043 ft 277 kts 169°
2026-04-25 05:58 33.79301 -118.54711 8673 ft 280 kts 169°
2026-04-25 05:58 33.77410 -118.54175 9319 ft 283 kts 170°
2026-04-25 05:58 33.75481 -118.53643 9960 ft 286 kts 171°
2026-04-25 05:59 33.73535 -118.53113 10560 ft 292 kts 171°
2026-04-25 05:59 33.71499 -118.52494 11183 ft 315 kts 162°
2026-04-25 05:59 33.69624 -118.50952 11805 ft 344 kts 134°
2026-04-25 05:59 33.68413 -118.48383 12493 ft 365 kts 113°
2026-04-25 06:00 33.67593 -118.45461 13151 ft 381 kts 110°
2026-04-25 06:00 33.66782 -118.42361 13815 ft 395 kts 110°
2026-04-25 06:00 33.65897 -118.39179 14405 ft 407 kts 111°
2026-04-25 06:00 33.64962 -118.35971 15000 ft 417 kts 111°
2026-04-25 06:01 33.64329 -118.32519 15571 ft 431 kts 94°
2026-04-25 06:01 33.64360 -118.28887 16223 ft 438 kts 89°
2026-04-25 06:01 33.64436 -118.25214 16844 ft 445 kts 90°
2026-04-25 06:01 33.64678 -118.21530 17449 ft 451 kts 77°
2026-04-25 06:02 33.65814 -118.17973 18119 ft 453 kts 58°
2026-04-25 06:02 33.67694 -118.14974 18687 ft 451 kts 41°
2026-04-25 06:02 33.70101 -118.12653 19291 ft 449 kts 32°
2026-04-25 06:02 33.72675 -118.10417 19882 ft 452 kts 32°